TimeEDT,TemperatureF,Dew PointF,Humidity,Sea Level PressureIn,VisibilityMPH,Wind Direction,Wind SpeedMPH,Gust SpeedMPH,PrecipitationIn,Events,Conditions,WindDirDegrees,DateUTC
12:53 AM,30.9,30.0,96,30.28,6.0,Calm,Calm,-,N/A,,Overcast,0,2013-10-25 04:53:00
1:53 AM,33.1,30.9,92,30.28,10.0,West,3.5,-,N/A,,Overcast,280,2013-10-25 05:53:00
2:53 AM,34.0,32.0,92,30.29,10.0,SW,3.5,-,N/A,,Overcast,220,2013-10-25 06:53:00
3:53 AM,34.0,32.0,92,30.30,10.0,Calm,Calm,-,N/A,,Overcast,0,2013-10-25 07:53:00
4:53 AM,34.0,30.9,89,30.31,10.0,West,3.5,-,N/A,,Overcast,260,2013-10-25 08:53:00
5:53 AM,33.1,30.0,89,30.32,10.0,SW,3.5,-,N/A,,Overcast,220,2013-10-25 09:53:00
6:53 AM,32.0,28.9,88,30.35,10.0,Calm,Calm,-,N/A,,Mostly Cloudy,0,2013-10-25 10:53:00
7:53 AM,32.0,28.0,85,30.36,10.0,Calm,Calm,-,N/A,,Mostly Cloudy,0,2013-10-25 11:53:00
8:53 AM,30.9,28.0,89,30.38,10.0,SSW,4.6,-,N/A,,Partly Cloudy,200,2013-10-25 12:53:00
9:53 AM,35.1,30.0,82,30.40,10.0,WSW,5.8,-,N/A,,Clear,240,2013-10-25 13:53:00
10:53 AM,39.9,33.1,77,30.40,10.0,West,8.1,-,N/A,,Clear,260,2013-10-25 14:53:00
11:53 AM,44.1,32.0,63,30.39,10.0,WSW,10.4,-,N/A,,Partly Cloudy,250,2013-10-25 15:53:00
12:53 PM,45.0,32.0,60,30.38,10.0,West,17.3,20.7,N/A,,Scattered Clouds,280,2013-10-25 16:53:00
1:53 PM,48.0,28.9,48,30.35,10.0,WNW,13.8,-,N/A,,Mostly Cloudy,290,2013-10-25 17:53:00
2:53 PM,46.9,28.0,48,30.33,10.0,NW,13.8,-,N/A,,Mostly Cloudy,310,2013-10-25 18:53:00
3:53 PM,46.9,28.0,48,30.31,10.0,West,11.5,-,N/A,,Clear,260,2013-10-25 19:53:00
4:53 PM,46.9,26.1,44,30.30,10.0,West,11.5,-,N/A,,Mostly Cloudy,270,2013-10-25 20:53:00
5:53 PM,46.0,26.1,46,30.27,10.0,WSW,10.4,-,N/A,,Clear,250,2013-10-25 21:53:00
6:53 PM,42.1,26.1,53,30.26,10.0,SW,6.9,-,N/A,,Clear,220,2013-10-25 22:53:00
7:53 PM,39.9,26.1,58,30.24,10.0,SSW,8.1,-,N/A,,Clear,200,2013-10-25 23:53:00
8:53 PM,41.0,26.1,55,30.22,10.0,SSW,10.4,-,N/A,,Clear,200,2013-10-26 00:53:00
9:53 PM,41.0,27.0,57,30.19,10.0,SSW,13.8,-,N/A,,Clear,200,2013-10-26 01:53:00
10:53 PM,39.9,27.0,60,30.17,10.0,SSW,15.0,-,N/A,,Clear,200,2013-10-26 02:53:00
11:53 PM,39.9,27.0,60,30.16,10.0,SSW,18.4,23.0,N/A,,Clear,210,2013-10-26 03:53:00